User: anonymous   Login
Location: Ostrava
(49.8330°N, 18.2830°E)
Time: 20:46:10
(UTC+01:00)
Language:

Cosmos 2221 - Orbit

View from above orbital plane
View from above orbital plane
View from above satellite
View from above satellite

Ground track
Ground track

The orbit data is extracted from the following two-line orbital elements,

1 22236U 92080A   17056.82681953  .00000329  00000-0  33474-4 0  9994
2 22236  82.5108 164.4064 0016929  14.6279 345.5424 14.87543538310764
Epoch (UTC): 25 February 2017 19:50:37
Eccentricity: 0.0016929
inclination: 82.5108°
perigee height: 594 km
apogee height: 617 km
right ascension of ascending node: 164.4064°
argument of perigee: 14.6279°
revolutions per day: 14.87543538
mean anomaly at epoch: 345.5424°
orbit number at epoch: 31076

The dashed part of the orbit path shows where the satellite is in the earth's shadow,  

DLR